Time,TemperatureF,DewpointF,PressureIn,WindDirection,WindDirectionDegrees,WindSpeedMPH,WindSpeedGustMPH,Humidity,HourlyPrecipIn,Conditions,Clouds,dailyrainin,SoftwareType,DateUTC
2013-10-07 00:13:00,68.0,64.0,29.79,South,170,11.0,21.0,87,0.00,,,0.00,,2013-10-07 04:13:00,
2013-10-07 00:24:00,68.0,64.0,29.79,South,169,13.0,21.0,87,0.00,,,0.00,,2013-10-07 04:24:00,
2013-10-07 00:44:00,68.0,64.0,29.79,SE,141,8.0,20.0,87,0.00,,,0.00,,2013-10-07 04:44:00,
2013-10-07 00:53:00,68.0,64.0,29.78,SE,135,9.0,20.0,87,0.00,,,0.00,,2013-10-07 04:53:00,
2013-10-07 01:13:00,68.0,64.0,29.78,SSE,165,9.0,22.0,87,0.00,,,0.00,,2013-10-07 05:13:00,
2013-10-07 01:23:00,68.0,64.0,29.77,SE,141,11.0,20.0,87,0.00,,,0.00,,2013-10-07 05:23:00,
2013-10-07 01:43:00,68.0,64.0,29.76,SSE,162,8.0,18.0,86,0.00,,,0.00,,2013-10-07 05:43:00,
2013-10-07 01:52:00,68.0,64.0,29.76,South,175,9.0,18.0,86,0.00,,,0.00,,2013-10-07 05:52:00,
2013-10-07 02:12:00,68.0,63.0,29.75,South,169,8.0,19.0,85,0.00,,,0.00,,2013-10-07 06:12:00,
2013-10-07 02:22:00,68.0,63.0,29.75,South,187,14.0,22.0,84,0.00,,,0.00,,2013-10-07 06:22:00,
2013-10-07 02:42:00,68.0,63.0,29.74,South,172,7.0,17.0,83,0.00,,,0.00,,2013-10-07 06:42:00,
2013-10-07 02:52:00,68.0,63.0,29.74,SE,143,6.0,17.0,83,0.00,,,0.00,,2013-10-07 06:52:00,
2013-10-07 03:12:00,68.0,62.0,29.72,SE,124,8.0,19.0,82,0.00,,,0.00,,2013-10-07 07:12:00,
2013-10-07 03:22:00,68.0,62.0,29.72,SE,139,9.0,19.0,82,0.00,,,0.00,,2013-10-07 07:22:00,
2013-10-07 03:42:00,68.0,62.0,29.71,SSE,165,7.0,16.0,82,0.00,,,0.00,,2013-10-07 07:42:00,
2013-10-07 03:52:00,68.0,62.0,29.70,South,172,9.0,21.0,82,0.00,,,0.00,,2013-10-07 07:52:00,
2013-10-07 04:12:00,68.0,62.0,29.70,SSE,155,8.0,23.0,82,0.00,,,0.00,,2013-10-07 08:12:00,
2013-10-07 04:22:00,68.0,62.0,29.70,SE,146,7.0,19.0,82,0.00,,,0.00,,2013-10-07 08:22:00,
2013-10-07 04:42:00,68.0,62.0,29.70,SSE,160,7.0,15.0,82,0.00,,,0.00,,2013-10-07 08:42:00,
2013-10-07 04:52:00,68.0,62.0,29.70,SSE,153,6.0,15.0,82,0.00,,,0.00,,2013-10-07 08:52:00,
2013-10-07 05:11:00,68.0,62.0,29.69,South,172,8.0,15.0,82,0.00,,,0.00,,2013-10-07 09:11:00,
2013-10-07 05:22:00,68.0,62.0,29.69,South,181,9.0,17.0,82,0.00,,,0.00,,2013-10-07 09:22:00,
2013-10-07 05:43:00,68.0,62.0,29.68,SE,145,9.0,18.0,82,0.00,,,0.00,,2013-10-07 09:43:00,
2013-10-07 05:53:00,68.0,63.0,29.68,SE,137,10.0,22.0,83,0.00,,,0.00,,2013-10-07 09:53:00,
2013-10-07 06:13:00,68.0,63.0,29.67,South,170,10.0,19.0,83,0.00,,,0.00,,2013-10-07 10:13:00,
2013-10-07 06:23:00,68.0,62.0,29.67,South,169,9.0,17.0,82,0.00,,,0.00,,2013-10-07 10:23:00,
2013-10-07 06:43:00,68.0,62.0,29.66,SSE,149,9.0,22.0,82,0.00,,,0.00,,2013-10-07 10:43:00,
2013-10-07 06:53:00,68.0,62.0,29.66,SE,136,8.0,18.0,82,0.00,,,0.00,,2013-10-07 10:53:00,
2013-10-07 07:12:00,68.0,62.0,29.66,SSE,162,6.0,12.0,82,0.00,,,0.00,,2013-10-07 11:12:00,
2013-10-07 07:22:00,68.0,62.0,29.65,South,174,7.0,16.0,82,0.00,,,0.00,,2013-10-07 11:22:00,
2013-10-07 07:42:00,68.0,63.0,29.66,SSE,149,6.0,17.0,83,0.00,,,0.00,,2013-10-07 11:42:00,
2013-10-07 07:52:00,67.0,62.0,29.65,SSE,168,10.0,21.0,83,0.00,,,0.00,,2013-10-07 11:52:00,
2013-10-07 08:12:00,68.0,62.0,29.64,SSE,158,12.0,21.0,82,0.00,,,0.00,,2013-10-07 12:12:00,
2013-10-07 08:22:00,68.0,62.0,29.63,SSE,154,6.0,21.0,82,0.00,,,0.00,,2013-10-07 12:22:00,
2013-10-07 08:43:00,68.0,62.0,29.62,SE,134,8.0,20.0,82,0.00,,,0.00,,2013-10-07 12:43:00,
2013-10-07 08:52:00,68.0,62.0,29.61,SSE,159,8.0,19.0,82,0.00,,,0.00,,2013-10-07 12:52:00,
2013-10-07 09:11:00,68.0,62.0,29.60,SSE,162,8.0,17.0,82,0.00,,,0.00,,2013-10-07 13:11:00,
2013-10-07 09:22:00,68.0,62.0,29.60,South,170,9.0,21.0,82,0.00,,,0.00,,2013-10-07 13:22:00,
2013-10-07 09:42:00,68.0,62.0,29.60,SE,144,7.0,21.0,82,0.00,,,0.00,,2013-10-07 13:42:00,
2013-10-07 09:52:00,61.0,58.0,29.65,WNW,290,4.0,14.0,89,0.12,,,0.12,,2013-10-07 13:52:00,
2013-10-07 10:11:00,58.0,56.0,29.66,South,174,7.0,15.0,94,0.28,,,0.28,,2013-10-07 14:11:00,
2013-10-07 10:22:00,56.0,55.0,29.67,NW,308,7.0,19.0,95,0.37,,,0.37,,2013-10-07 14:22:00,
2013-10-07 10:42:00,55.0,54.0,29.67,NNW,333,7.0,14.0,95,0.41,,,0.41,,2013-10-07 14:42:00,
2013-10-07 10:52:00,54.0,53.0,29.67,WNW,295,6.0,17.0,95,0.28,,,0.44,,2013-10-07 14:52:00,
2013-10-07 11:11:00,54.0,53.0,29.67,WNW,299,6.0,12.0,95,0.20,,,0.49,,2013-10-07 15:11:00,
2013-10-07 11:22:00,53.0,52.0,29.66,WNW,287,5.0,15.0,96,0.19,,,0.56,,2013-10-07 15:22:00,
2013-10-07 11:43:00,53.0,52.0,29.65,NW,314,9.0,14.0,96,0.20,,,0.61,,2013-10-07 15:43:00,
2013-10-07 11:53:00,52.0,51.0,29.67,WNW,299,7.0,17.0,95,0.17,,,0.61,,2013-10-07 15:53:00,
2013-10-07 12:13:00,53.0,52.0,29.68,WSW,243,3.0,11.0,96,0.12,,,0.61,,2013-10-07 16:13:00,
2013-10-07 12:23:00,53.0,52.0,29.69,NW,309,0.0,6.0,96,0.05,,,0.62,,2013-10-07 16:23:00,
2013-10-07 12:43:00,53.0,52.0,29.68,NW,306,1.0,8.0,96,0.02,,,0.63,,2013-10-07 16:43:00,
2013-10-07 12:53:00,52.0,51.0,29.70,NNW,328,3.0,9.0,96,0.04,,,0.65,,2013-10-07 16:53:00,
2013-10-07 13:12:00,52.0,51.0,29.70,NE,47,2.0,10.0,95,0.06,,,0.67,,2013-10-07 17:12:00,
2013-10-07 13:22:00,52.0,51.0,29.68,NW,316,3.0,6.0,96,0.06,,,0.68,,2013-10-07 17:22:00,
2013-10-07 13:42:00,52.0,51.0,29.69,WNW,282,3.0,9.0,96,0.06,,,0.69,,2013-10-07 17:42:00,
2013-10-07 13:52:00,52.0,51.0,29.69,WNW,293,3.0,10.0,95,0.04,,,0.69,,2013-10-07 17:52:00,
2013-10-07 14:12:00,52.0,50.0,29.69,WNW,293,3.0,12.0,94,0.02,,,0.69,,2013-10-07 18:12:00,
2013-10-07 14:22:00,53.0,51.0,29.70,NW,316,3.0,12.0,93,0.01,,,0.69,,2013-10-07 18:22:00,
2013-10-07 14:42:00,53.0,50.0,29.72,NNW,328,2.0,8.0,91,0.00,,,0.69,,2013-10-07 18:42:00,
2013-10-07 14:52:00,54.0,51.0,29.72,NW,323,3.0,9.0,88,0.00,,,0.69,,2013-10-07 18:52:00,
2013-10-07 15:11:00,54.0,50.0,29.73,West,269,3.0,11.0,86,0.00,,,0.69,,2013-10-07 19:11:00,
2013-10-07 15:22:00,56.0,48.0,29.74,WSW,252,6.0,13.0,75,0.00,,,0.69,,2013-10-07 19:22:00,
2013-10-07 15:42:00,56.0,46.0,29.75,South,183,2.0,17.0,70,0.00,,,0.69,,2013-10-07 19:42:00,
2013-10-07 15:52:00,56.0,46.0,29.75,NW,314,4.0,9.0,68,0.00,,,0.69,,2013-10-07 19:52:00,
2013-10-07 16:12:00,56.0,44.0,29.76,WSW,253,4.0,11.0,64,0.00,,,0.69,,2013-10-07 20:12:00,
2013-10-07 16:22:00,56.0,44.0,29.77,WNW,283,8.0,14.0,63,0.00,,,0.69,,2013-10-07 20:22:00,
2013-10-07 16:43:00,56.0,43.0,29.78,WSW,252,5.0,19.0,61,0.00,,,0.69,,2013-10-07 20:43:00,
2013-10-07 16:52:00,56.0,42.0,29.79,WSW,255,5.0,17.0,59,0.00,,,0.69,,2013-10-07 20:52:00,
2013-10-07 17:12:00,55.0,42.0,29.79,NW,307,6.0,13.0,62,0.00,,,0.69,,2013-10-07 21:12:00,
2013-10-07 17:23:00,55.0,42.0,29.80,NW,319,6.0,14.0,62,0.00,,,0.69,,2013-10-07 21:23:00,
2013-10-07 17:43:00,54.0,41.0,29.81,NW,312,6.0,16.0,62,0.00,,,0.69,,2013-10-07 21:43:00,
2013-10-07 17:55:00,54.0,41.0,29.83,WNW,295,5.0,16.0,62,0.00,,,0.69,,2013-10-07 21:55:00,
2013-10-07 18:13:00,54.0,42.0,29.83,NW,309,5.0,10.0,64,0.00,,,0.69,,2013-10-07 22:13:00,
2013-10-07 18:24:00,53.0,41.0,29.84,WNW,291,7.0,18.0,63,0.00,,,0.69,,2013-10-07 22:24:00,
2013-10-07 18:43:00,53.0,42.0,29.85,WNW,302,4.0,10.0,65,0.00,,,0.69,,2013-10-07 22:43:00,
2013-10-07 18:53:00,53.0,42.0,29.85,WNW,296,5.0,9.0,65,0.00,,,0.69,,2013-10-07 22:53:00,
2013-10-07 19:12:00,52.0,41.0,29.86,NW,320,1.0,5.0,67,0.00,,,0.69,,2013-10-07 23:12:00,
2013-10-07 19:22:00,52.0,41.0,29.88,NW,312,2.0,5.0,67,0.00,,,0.69,,2013-10-07 23:22:00,
2013-10-07 19:52:00,52.0,41.0,29.90,NW,316,3.0,8.0,67,0.00,,,0.69,,2013-10-07 23:52:00,
2013-10-07 20:12:00,52.0,41.0,29.90,NW,307,4.0,11.0,67,0.00,,,0.69,,2013-10-08 00:12:00,
2013-10-07 20:22:00,52.0,41.0,29.91,NW,324,5.0,12.0,66,0.00,,,0.69,,2013-10-08 00:22:00,
2013-10-07 20:42:00,51.0,41.0,29.92,NW,307,1.0,9.0,68,0.00,,,0.69,,2013-10-08 00:42:00,
2013-10-07 20:52:00,51.0,42.0,29.93,SW,214,1.0,6.0,70,0.00,,,0.69,,2013-10-08 00:52:00,
2013-10-07 21:12:00,50.0,41.0,29.93,NW,307,2.0,9.0,71,0.00,,,0.69,,2013-10-08 01:12:00,
2013-10-07 21:22:00,50.0,41.0,29.93,WNW,287,1.0,4.0,72,0.00,,,0.69,,2013-10-08 01:22:00,
2013-10-07 21:42:00,50.0,42.0,29.94,South,175,1.0,7.0,73,0.00,,,0.69,,2013-10-08 01:42:00,
2013-10-07 21:52:00,49.0,41.0,29.96,West,276,0.0,5.0,75,0.00,,,0.69,,2013-10-08 01:52:00,
2013-10-07 22:11:00,49.0,41.0,29.97,WNW,288,1.0,4.0,75,0.00,,,0.69,,2013-10-08 02:11:00,
2013-10-07 22:22:00,49.0,42.0,29.98,WNW,298,0.0,5.0,77,0.00,,,0.69,,2013-10-08 02:22:00,
2013-10-07 22:42:00,49.0,42.0,29.98,NW,308,2.0,6.0,76,0.00,,,0.69,,2013-10-08 02:42:00,
2013-10-07 22:52:00,49.0,42.0,29.99,WNW,295,1.0,4.0,77,0.00,,,0.69,,2013-10-08 02:52:00,
2013-10-07 23:11:00,48.0,41.0,29.99,WNW,291,2.0,6.0,78,0.00,,,0.69,,2013-10-08 03:11:00,
2013-10-07 23:22:00,48.0,41.0,30.00,NW,310,3.0,6.0,78,0.00,,,0.69,,2013-10-08 03:22:00,
2013-10-07 23:44:00,48.0,42.0,29.99,WNW,291,4.0,7.0,79,0.00,,,0.69,,2013-10-08 03:44:00,
2013-10-07 23:55:00,48.0,42.0,30.00,NW,309,5.0,9.0,80,0.00,,,0.69,,2013-10-08 03:55:00,